Newport News, VA

12:25 AM EST on February 22, 2017 (GMT -0500)
Newport News-Williamsburg International

Weather History for KPHF - March, 2013

Change the Weather History Date:

Sunday, March 10, 2013

  Actual Average Record
Temperature  
Mean Temperature 44 °F -  
Max Temperature 57 °F 54 °F 78 °F (2016)
Min Temperature 30 °F 37 °F 18 °F (1975)
Degree Days  
Heating Degree Days 22    
Moisture  
Dew Point 33 °F    
Average Humidity 66    
Maximum Humidity 86    
Minimum Humidity 25    
Precipitation  
Precipitation 0.00 in - - ()
Sea Level Pressure  
Sea Level Pressure 30.31 in    
Wind  
Wind Speed 3 mph (East)    
Max Wind Speed 12 mph    
Max Gust Speed -    
Visibility 9 miles    
Events      
Averages and records for this station are not official NWS values.
T = Trace of Precipitation, MM = Missing Value Source: NWS Daily Summary

Daily Weather History Graph

Daily Weather History Graph

Search for Another Location

Airport or City:

Trip Planner

Search our weather history database for the weather conditions in past years. The results will help you decide how hot, cold, wet, or windy it might be!

Date:

Astronomy

Mar. 10, 2013 Rise Set
Actual Time 7:23 AM EDT 7:08 PM EDT
Civil Twilight 6:58 AM EDT 7:34 PM EDT
Nautical Twilight 6:27 AM EDT 8:04 PM EDT
Astronomical Twilight 5:57 AM EDT 8:35 PM EDT
Moon 6:21 AM EDT (3/10) 6:14 PM EDT (3/10)
Length of Visible Light 12h 36m
Length of Day
11h 44m
Waning Crescent, 2% of the Moon is Illuminated
Mar 10
Waning Crescent
Mar 11
New
Mar 19
First Quarter
Mar 27
Full
Apr 3
Last Quarter

Hourly Weather History & Observations

Time (EDT) Temp. Windchill Dew Point Humidity Pressure Visibility Wind Dir Wind Speed Gust Speed Precip Events Conditions
12:54 AM 35.1 °F - 28.9 °F 78% 30.32 in 10.0 mi Calm Calm - N/A   Clear
1:54 AM 33.1 °F - 27.0 °F 78% 30.31 in 10.0 mi Calm Calm - N/A   Clear
3:54 AM 33.1 °F - 28.0 °F 82% 30.30 in 10.0 mi Calm Calm - N/A   Clear
4:54 AM 32.0 °F - 26.1 °F 79% 30.29 in 10.0 mi Calm Calm - N/A   Clear
5:54 AM 32.0 °F - 26.1 °F 79% 30.30 in 10.0 mi Calm Calm - N/A   Clear
6:54 AM 30.0 °F - 25.0 °F 82% 30.31 in 9.0 mi Calm Calm - N/A   Clear
8:54 AM 39.9 °F - 33.1 °F 77% 30.32 in 10.0 mi Calm Calm - N/A   Clear
9:54 AM 51.1 °F - 28.0 °F 41% 30.34 in 10.0 mi East 5.8 mph - N/A   Clear
10:54 AM 54.0 °F - 19.0 °F 25% 30.35 in 10.0 mi ENE 11.5 mph - N/A   Clear
11:54 AM 55.9 °F - 21.9 °F 27% 30.34 in 10.0 mi East 8.1 mph - N/A   Clear
12:54 PM 57.9 °F - 26.1 °F 30% 30.34 in 10.0 mi ENE 5.8 mph - N/A   Clear
1:54 PM 57.9 °F - 28.0 °F 32% 30.31 in 10.0 mi SE 5.8 mph - N/A   Clear
2:54 PM 57.9 °F - 33.1 °F 39% 30.30 in 10.0 mi East 9.2 mph - N/A   Clear
3:54 PM 57.0 °F - 39.9 °F 53% 30.29 in 10.0 mi East 9.2 mph - N/A   Clear
4:54 PM 55.9 °F - 37.0 °F 49% 30.29 in 10.0 mi East 11.5 mph - N/A   Clear
5:54 PM 53.1 °F - 41.0 °F 64% 30.29 in 10.0 mi East 10.4 mph - N/A   Clear
6:54 PM 48.9 °F - 39.9 °F 71% 30.29 in 10.0 mi East 8.1 mph - N/A   Clear
7:54 PM 46.0 °F 41.9 °F 39.0 °F 76% 30.29 in 10.0 mi ESE 8.1 mph - N/A   Clear
8:54 PM 45.0 °F 43.5 °F 39.0 °F 80% 30.30 in 10.0 mi ESE 3.5 mph - N/A   Clear
9:22 PM 44.6 °F - 37.4 °F 76% 30.31 in 10.0 mi Calm Calm - N/A   Partly Cloudy
9:54 PM 42.8 °F 41.1 °F 35.6 °F 76% 30.32 in 9.0 mi East 3.5 mph - N/A   Clear
10:15 PM 42.8 °F 39.3 °F 37.4 °F 81% 30.30 in 8.0 mi ESE 5.8 mph - N/A   Scattered Clouds
10:54 PM 44.1 °F 40.1 °F 39.0 °F 82% 30.29 in 4.0 mi East 6.9 mph - N/A   Haze
11:01 PM 44.6 °F 40.7 °F 39.2 °F 81% 30.29 in 4.0 mi ESE 6.9 mph - N/A   Haze
11:43 PM 44.6 °F - 39.2 °F 81% 30.29 in 6.0 mi Calm Calm - N/A   Haze
11:54 PM 43.0 °F 41.3 °F 39.0 °F 86% 30.29 in 6.0 mi ESE 3.5 mph - N/A   Clear
12:54 AM 42.8 °F - 37.4 °F 81% 30.28 in 5.0 mi Calm Calm - N/A   Clear